WXM80 ListenWXM80 Stop

You find our weather info also at:

UK Metoffice

WeatherCloud

Weather Underground

Northeastern Weather Network

AWEKAS

Citizen Weather Observer Program (CWOP)

HAMweather, WeatherForYou, PWS Weather


Weather Underground History page Text

Daily Summary for May 29, 2017 Units:  English    Metric   Both
« Previous Day
Next Day »
Daily Weekly Monthly Yearly Custom
  High: Low: Average:
Temperature: 59.2 °F 54.2 °F 56.1 °F
Dew Point: 56.9 °F 53.1 °F 54.3 °F
Humidity: 98 % 81 % 94 %
Wind Speed: 7.6 mph 0.0 mph 1.7 mph
Wind Gust: 16.1 mph - -
Wind:- - ENE
Pressure: 30.07 in 29.84 in -
Precipitation: 0.28 in    
Historical Graphs
 
 
Tabular Data for May 29, 2017
Time Temperature Dew Point Pressure Wind Wind Speed Wind Gust Humidity Rainfall Rate (Hourly)
00:04 59.2 °F 53.4 °F 29.89 in Calm     81 % 0.00 in
00:09 59.2 °F 53.4 °F 29.89 in SSE 0.1 mph 1.2 mph 81 % 0.00 in
00:12 59.1 °F 53.3 °F 29.89 in Calm     81 % 0.00 in
00:17 59.1 °F 53.6 °F 29.89 in Calm     82 % 0.00 in
00:22 59.1 °F 53.6 °F 29.89 in Calm     82 % 0.00 in
00:27 59.1 °F 53.6 °F 29.89 in Calm   1.2 mph 82 % 0.00 in
00:32 59.1 °F 53.6 °F 29.89 in SSE 0.1 mph 1.2 mph 82 % 0.00 in
00:37 59.0 °F 53.8 °F 29.89 in SSE 0.1 mph 1.2 mph 83 % 0.00 in
00:42 59.0 °F 54.2 °F 29.89 in SSE 0.2 mph 1.2 mph 84 % 0.00 in
00:47 59.0 °F 54.2 °F 29.89 in SSE 0.1 mph 1.2 mph 84 % 0.00 in
00:52 59.0 °F 54.2 °F 29.89 in SSE 0.2 mph 1.2 mph 84 % 0.00 in
00:53 59.0 °F 54.2 °F 29.89 in SSE 0.3 mph 1.2 mph 84 % 0.00 in
00:58 59.0 °F 54.2 °F 29.88 in SSE 0.2 mph 1.2 mph 84 % 0.00 in
01:03 58.9 °F 54.1 °F 29.88 in SSE 0.5 mph 1.2 mph 84 % 0.00 in
01:08 58.9 °F 54.1 °F 29.88 in SSE 0.1 mph 1.2 mph 84 % 0.00 in
01:13 58.9 °F 54.4 °F 29.88 in East 0.2 mph 2.3 mph 85 % 0.00 in
01:18 58.9 °F 54.7 °F 29.88 in Calm   1.2 mph 86 % 0.00 in
01:23 58.9 °F 54.7 °F 29.88 in East 0.3 mph 2.3 mph 86 % 0.00 in
01:28 58.8 °F 54.6 °F 29.87 in East 0.1 mph 1.2 mph 86 % 0.00 in
01:33 58.7 °F 54.5 °F 29.87 in East 0.5 mph 1.2 mph 86 % 0.00 in
01:38 58.6 °F 54.4 °F 29.87 in East 0.1 mph 1.2 mph 86 % 0.00 in
01:43 58.6 °F 54.4 °F 29.87 in East 0.3 mph 1.2 mph 86 % 0.00 in
01:48 58.6 °F 54.4 °F 29.87 in East 0.3 mph 1.2 mph 86 % 0.00 in
01:53 58.6 °F 54.4 °F 29.87 in East 0.4 mph 2.0 mph 86 % 0.00 in
01:58 58.5 °F 54.3 °F 29.87 in East 0.1 mph 1.2 mph 86 % 0.00 in
02:03 58.5 °F 54.3 °F 29.87 in East 0.5 mph 2.3 mph 86 % 0.00 in
02:08 58.5 °F 54.3 °F 29.87 in East 0.7 mph 2.3 mph 86 % 0.00 in
02:13 58.5 °F 54.3 °F 29.87 in East 0.4 mph 2.3 mph 86 % 0.00 in
02:18 58.5 °F 54.3 °F 29.87 in East 0.5 mph 1.2 mph 86 % 0.00 in
02:23 58.5 °F 54.3 °F 29.87 in East 0.3 mph 1.2 mph 86 % 0.00 in
02:28 58.4 °F 54.2 °F 29.87 in East 0.6 mph 1.2 mph 86 % 0.00 in
02:33 58.4 °F 54.2 °F 29.86 in East 0.9 mph 2.3 mph 86 % 0.00 in
02:35 58.5 °F 54.3 °F 29.86 in East 0.7 mph 2.3 mph 86 % 0.00 in
02:40 58.4 °F 54.2 °F 29.86 in East 0.7 mph 1.2 mph 86 % 0.00 in
02:45 58.4 °F 54.5 °F 29.86 in East 0.7 mph 2.3 mph 87 % 0.00 in
02:55 58.4 °F 54.5 °F 29.86 in East 0.2 mph 1.2 mph 87 % 0.00 in
03:00 58.4 °F 54.5 °F 29.86 in East 0.6 mph 1.2 mph 87 % 0.00 in
03:05 58.4 °F 54.5 °F 29.86 in East 0.8 mph 2.3 mph 87 % 0.00 in
03:10 58.4 °F 54.5 °F 29.86 in East 0.8 mph 2.3 mph 87 % 0.00 in
03:15 58.4 °F 54.5 °F 29.86 in East 0.7 mph 1.2 mph 87 % 0.00 in
03:20 58.4 °F 54.5 °F 29.86 in ENE 1.2 mph 2.3 mph 87 % 0.00 in
03:25 58.4 °F 54.9 °F 29.86 in ENE 1.4 mph 3.0 mph 88 % 0.00 in
03:30 58.3 °F 54.8 °F 29.85 in ENE 2.5 mph 3.5 mph 88 % 0.00 in
03:35 58.2 °F 54.7 °F 29.85 in ENE 1.9 mph 3.5 mph 88 % 0.00 in
03:36 58.2 °F 54.7 °F 29.85 in ENE 1.9 mph 3.5 mph 88 % 0.00 in
03:41 58.1 °F 54.9 °F 29.85 in ENE 1.7 mph 2.3 mph 89 % 0.00 in
03:46 58.0 °F 54.8 °F 29.85 in ENE 2.0 mph 3.5 mph 89 % 0.00 in
03:51 58.0 °F 54.8 °F 29.85 in ENE 1.9 mph 3.5 mph 89 % 0.00 in
03:56 58.0 °F 54.8 °F 29.85 in ENE 1.2 mph 3.5 mph 89 % 0.00 in
04:01 57.9 °F 55.0 °F 29.86 in ENE 1.6 mph 3.5 mph 90 % 0.00 in
04:06 57.9 °F 55.0 °F 29.85 in ENE 1.9 mph 3.5 mph 90 % 0.00 in
04:11 57.8 °F 55.2 °F 29.85 in ENE 1.7 mph 2.3 mph 91 % 0.01 in
04:16 57.7 °F 55.4 °F 29.84 in ENE 2.2 mph 3.5 mph 92 % 0.01 in
04:22 57.6 °F 55.3 °F 29.85 in ENE 2.2 mph 3.5 mph 92 % 0.01 in
04:27 57.5 °F 55.5 °F 29.85 in East 3.0 mph 5.0 mph 93 % 0.01 in
04:32 57.3 °F 55.3 °F 29.86 in ENE 3.0 mph 3.5 mph 93 % 0.02 in
04:37 57.2 °F 55.2 °F 29.85 in ENE 3.2 mph 4.6 mph 93 % 0.02 in
04:42 57.1 °F 55.1 °F 29.86 in ENE 1.8 mph 3.5 mph 93 % 0.02 in
04:47 57.1 °F 55.4 °F 29.85 in ENE 1.5 mph 3.5 mph 94 % 0.02 in
04:52 56.9 °F 55.2 °F 29.85 in ENE 1.1 mph 2.3 mph 94 % 0.02 in
04:57 56.9 °F 55.2 °F 29.86 in ENE 0.8 mph 2.3 mph 94 % 0.03 in
05:02 56.9 °F 55.2 °F 29.85 in ENE 0.6 mph 2.3 mph 94 % 0.03 in
05:07 56.9 °F 55.5 °F 29.86 in ENE 1.0 mph 2.3 mph 95 % 0.03 in
05:12 56.9 °F 55.5 °F 29.86 in ENE 1.0 mph 2.3 mph 95 % 0.02 in
05:17 56.8 °F 55.4 °F 29.86 in ENE 0.9 mph 2.3 mph 95 % 0.02 in
05:22 56.8 °F 55.4 °F 29.86 in ENE 1.3 mph 2.3 mph 95 % 0.02 in
05:27 56.6 °F 55.2 °F 29.85 in ENE 1.3 mph 2.3 mph 95 % 0.02 in
05:30 56.6 °F 55.2 °F 29.86 in ENE 1.1 mph 2.3 mph 95 % 0.03 in
05:35 56.5 °F 55.1 °F 29.86 in ENE 2.0 mph 5.8 mph 95 % 0.02 in
05:40 56.4 °F 55.0 °F 29.86 in ENE 1.8 mph 3.5 mph 95 % 0.02 in
05:45 56.4 °F 55.0 °F 29.86 in ENE 1.8 mph 2.3 mph 95 % 0.03 in
05:50 56.3 °F 54.9 °F 29.86 in ENE 2.0 mph 3.5 mph 95 % 0.03 in
05:55 56.3 °F 54.9 °F 29.86 in ENE 2.0 mph 3.0 mph 95 % 0.03 in
06:00 56.3 °F 54.9 °F 29.86 in ENE 1.7 mph 2.3 mph 95 % 0.04 in
06:05 56.3 °F 55.2 °F 29.86 in ENE 1.3 mph 3.0 mph 96 % 0.05 in
06:11 56.3 °F 55.2 °F 29.86 in ENE 1.0 mph 2.0 mph 96 % 0.01 in
06:16 56.2 °F 55.1 °F 29.86 in ENE 1.0 mph 3.0 mph 96 % 0.01 in
06:21 56.2 °F 55.1 °F 29.86 in ENE 2.0 mph 5.0 mph 96 % 0.01 in
06:26 56.1 °F 55.0 °F 29.87 in ENE 2.0 mph 7.0 mph 96 % 0.01 in
06:31 56.1 °F 55.0 °F 29.87 in ENE 3.9 mph 5.0 mph 96 % 0.08 in
06:36 56.0 °F 54.9 °F 29.87 in ENE 2.0 mph 8.0 mph 96 % 0.00 in
06:41 56.0 °F 54.9 °F 29.87 in ENE 2.0 mph 5.0 mph 96 % 0.00 in
06:46 56.0 °F 54.9 °F 29.87 in ENE 2.0 mph 8.0 mph 96 % 0.00 in
06:51 56.0 °F 54.9 °F 29.86 in ENE 2.0 mph 7.0 mph 96 % 0.00 in
06:56 56.0 °F 54.9 °F 29.87 in ENE 1.0 mph 8.0 mph 96 % 0.00 in
07:01 56.0 °F 54.9 °F 29.87 in ENE 3.5 mph 7.0 mph 96 % 0.10 in
07:06 56.0 °F 54.9 °F 29.87 in ENE 2.7 mph 7.0 mph 96 % 0.10 in
07:10 56.0 °F 54.9 °F 29.88 in ENE 2.4 mph 4.6 mph 96 % 0.11 in
07:16 56.0 °F 54.8 °F 29.87 in ENE 2.0 mph 7.0 mph 96 % 0.00 in
07:20 55.9 °F 54.8 °F 29.87 in ENE 2.0 mph 10.0 mph 96 % 0.00 in
07:26 55.9 °F 54.8 °F 29.87 in ENE 3.0 mph 9.0 mph 96 % 0.00 in
07:30 55.9 °F 54.8 °F 29.88 in ENE 2.0 mph 3.0 mph 96 % 0.00 in
07:36 55.9 °F 55.1 °F 29.87 in ENE 2.0 mph 4.0 mph 97 % 0.00 in
07:41 55.9 °F 55.1 °F 29.86 in ENE 3.0 mph 6.0 mph 97 % 0.00 in
07:46 55.9 °F 55.1 °F 29.87 in ENE 2.0 mph 7.0 mph 97 % 0.00 in
07:51 55.9 °F 55.1 °F 29.86 in ENE 3.0 mph 8.0 mph 97 % 0.01 in
07:56 55.9 °F 55.1 °F 29.87 in ENE 2.0 mph 6.0 mph 97 % 0.00 in
08:01 55.8 °F 55.0 °F 29.87 in ENE 1.6 mph 3.5 mph 97 % 0.05 in
08:06 55.8 °F 55.0 °F 29.87 in ENE 3.3 mph 6.9 mph 97 % 0.04 in
08:11 55.8 °F 55.0 °F 29.87 in ENE 2.2 mph 3.5 mph 97 % 0.04 in
08:16 55.9 °F 55.1 °F 29.88 in ENE 2.6 mph 3.5 mph 97 % 0.04 in
08:21 55.9 °F 55.1 °F 29.87 in ENE 3.8 mph 8.1 mph 97 % 0.04 in
08:26 55.9 °F 55.1 °F 29.88 in ENE 3.0 mph 6.9 mph 97 % 0.04 in
08:31 55.9 °F 55.1 °F 29.88 in East 3.5 mph 5.8 mph 97 % 0.04 in
08:36 55.8 °F 55.0 °F 29.88 in ENE 3.0 mph 4.6 mph 97 % 0.03 in
08:41 55.7 °F 54.9 °F 29.88 in ENE 3.5 mph 4.0 mph 97 % 0.03 in
08:46 55.7 °F 54.9 °F 29.88 in ENE 3.1 mph 4.0 mph 97 % 0.02 in
08:51 55.9 °F 55.1 °F 29.88 in ENE 3.2 mph 6.9 mph 97 % 0.01 in
08:56 56.0 °F 55.2 °F 29.88 in ENE 3.9 mph 5.8 mph 97 % 0.01 in
09:01 55.9 °F 55.1 °F 29.88 in ENE 2.8 mph 4.6 mph 97 % 0.01 in
09:06 55.9 °F 55.1 °F 29.88 in ENE 2.1 mph 3.5 mph 97 % 0.01 in
09:11 56.0 °F 55.2 °F 29.88 in East 3.5 mph 5.0 mph 97 % 0.00 in
09:16 55.9 °F 55.1 °F 29.89 in ENE 2.8 mph 4.0 mph 97 % 0.00 in
09:21 55.9 °F 55.1 °F 29.89 in ENE 2.1 mph 3.5 mph 97 % 0.00 in
09:26 56.0 °F 55.2 °F 29.89 in ENE 2.4 mph 3.5 mph 97 % 0.01 in
09:32 56.1 °F 55.3 °F 29.88 in East 2.4 mph 4.6 mph 97 % 0.01 in
09:37 56.3 °F 55.5 °F 29.88 in East 3.8 mph 5.0 mph 97 % 0.01 in
09:42 56.7 °F 55.9 °F 29.88 in East 3.1 mph 4.6 mph 97 % 0.01 in
09:47 57.2 °F 56.6 °F 29.89 in East 2.7 mph 3.5 mph 98 % 0.01 in
09:52 57.3 °F 56.5 °F 29.89 in ENE 2.2 mph 3.5 mph 97 % 0.01 in
09:57 57.5 °F 56.7 °F 29.89 in ENE 2.3 mph 4.0 mph 97 % 0.01 in
10:02 57.6 °F 56.8 °F 29.89 in ENE 2.9 mph 5.8 mph 97 % 0.01 in
10:07 57.7 °F 56.9 °F 29.89 in East 3.2 mph 5.0 mph 97 % 0.01 in
10:12 57.5 °F 56.7 °F 29.88 in East 3.5 mph 5.0 mph 97 % 0.01 in
10:17 57.6 °F 56.8 °F 29.89 in ENE 2.1 mph 3.5 mph 97 % 0.01 in
10:22 57.6 °F 56.8 °F 29.90 in East 2.4 mph 5.0 mph 97 % 0.01 in
10:27 57.6 °F 56.8 °F 29.90 in East 2.0 mph 4.6 mph 97 % 0.00 in
10:32 57.4 °F 56.3 °F 29.89 in ENE 2.4 mph 4.0 mph 96 % 0.00 in
10:37 57.4 °F 56.3 °F 29.89 in ENE 2.8 mph 3.5 mph 96 % 0.00 in
10:42 57.5 °F 56.4 °F 29.89 in East 3.6 mph 6.9 mph 96 % 0.00 in
10:47 57.4 °F 56.3 °F 29.89 in ENE 2.8 mph 4.0 mph 96 % 0.00 in
10:52 57.1 °F 55.7 °F 29.90 in ENE 3.1 mph 6.9 mph 95 % 0.00 in
10:57 56.9 °F 55.5 °F 29.90 in ENE 3.4 mph 4.6 mph 95 % 0.00 in
11:02 56.4 °F 54.7 °F 29.90 in ENE 4.5 mph 9.2 mph 94 % 0.00 in
11:07 56.2 °F 54.8 °F 29.91 in ENE 3.4 mph 7.0 mph 95 % 0.00 in
11:12 56.0 °F 54.3 °F 29.91 in NE 3.5 mph 6.9 mph 94 % 0.00 in
11:17 55.8 °F 54.4 °F 29.90 in ENE 2.9 mph 4.6 mph 95 % 0.00 in
11:22 55.7 °F 54.3 °F 29.90 in ENE 6.6 mph 9.0 mph 95 % 0.00 in
11:27 55.5 °F 54.1 °F 29.90 in East 6.7 mph 9.2 mph 95 % 0.00 in
11:32 55.4 °F 54.0 °F 29.91 in East 6.1 mph 8.0 mph 95 % 0.00 in
11:37 55.2 °F 53.8 °F 29.91 in ENE 5.3 mph 11.5 mph 95 % 0.00 in
11:43 55.0 °F 53.6 °F 29.90 in ENE 6.6 mph 13.8 mph 95 % 0.00 in
11:48 54.9 °F 53.5 °F 29.90 in East 7.0 mph 16.1 mph 95 % 0.00 in
11:53 54.9 °F 53.5 °F 29.90 in ENE 4.6 mph 11.5 mph 95 % 0.00 in
11:58 54.9 °F 53.5 °F 29.91 in ENE 7.6 mph 11.5 mph 95 % 0.01 in
12:03 54.9 °F 53.8 °F 29.91 in East 2.8 mph 8.1 mph 96 % 0.01 in
12:08 54.8 °F 53.7 °F 29.92 in ENE 6.0 mph 10.4 mph 96 % 0.01 in
12:13 54.7 °F 53.6 °F 29.92 in East 2.9 mph 8.1 mph 96 % 0.01 in
12:18 54.6 °F 53.5 °F 29.93 in NE 3.6 mph 10.4 mph 96 % 0.01 in
12:21 54.5 °F 53.1 °F 29.93 in ENE 7.2 mph 12.7 mph 95 % 0.01 in
12:26 54.4 °F 53.3 °F 29.93 in NE 6.3 mph 9.2 mph 96 % 0.01 in
12:31 54.4 °F 53.3 °F 29.93 in ENE 4.0 mph 6.9 mph 96 % 0.02 in
12:36 54.5 °F 53.4 °F 29.92 in ENE 4.6 mph 10.0 mph 96 % 0.02 in
12:42 54.5 °F 53.4 °F 29.92 in ENE 6.4 mph 10.4 mph 96 % 0.02 in
12:47 54.5 °F 53.4 °F 29.93 in NE 2.8 mph 11.5 mph 96 % 0.03 in
12:52 54.6 °F 53.5 °F 29.94 in East 4.2 mph 6.9 mph 96 % 0.03 in
12:53 54.6 °F 53.5 °F 29.94 in NNE 5.0 mph 8.1 mph 96 % 0.03 in
12:58 54.4 °F 53.3 °F 29.95 in NE 7.2 mph 9.2 mph 96 % 0.02 in
13:03 54.3 °F 53.2 °F 29.96 in NNE 6.0 mph 9.2 mph 96 % 0.02 in
13:08 54.3 °F 53.2 °F 29.95 in ENE 5.3 mph 10.4 mph 96 % 0.02 in
13:11 54.3 °F 53.2 °F 29.94 in ENE 3.2 mph 11.5 mph 96 % 0.02 in
13:16 54.4 °F 53.3 °F 29.95 in ENE 6.0 mph 13.0 mph 96 % 0.00 in
13:21 54.3 °F 53.2 °F 29.96 in ENE 5.0 mph 9.0 mph 96 % 0.00 in
13:26 54.3 °F 53.2 °F 29.96 in ENE 2.0 mph 8.0 mph 96 % 0.00 in
13:31 54.2 °F 53.1 °F 29.96 in ENE 6.0 mph 9.0 mph 96 % 0.00 in
13:36 54.2 °F 53.1 °F 29.96 in ENE 5.0 mph 10.0 mph 96 % 0.00 in
13:41 54.3 °F 53.2 °F 29.96 in ENE 2.0 mph 7.0 mph 96 % 0.00 in
13:46 54.4 °F 53.3 °F 29.95 in ENE 2.0 mph 10.0 mph 96 % 0.00 in
13:51 54.4 °F 53.3 °F 29.95 in ENE 5.0 mph 9.0 mph 96 % 0.00 in
13:56 54.5 °F 53.4 °F 29.96 in ENE 3.0 mph 7.0 mph 96 % 0.00 in
14:01 54.6 °F 53.5 °F 29.96 in ENE 2.3 mph 4.0 mph 96 % 0.01 in
14:06 54.5 °F 53.4 °F 29.96 in ENE 3.0 mph 7.0 mph 96 % 0.00 in
14:11 54.6 °F 53.5 °F 29.96 in East 2.2 mph 3.5 mph 96 % 0.01 in
14:16 54.6 °F 53.5 °F 29.97 in ENE 3.0 mph 5.0 mph 96 % 0.00 in
14:21 54.6 °F 53.5 °F 29.97 in ENE 2.0 mph 7.0 mph 96 % 0.00 in
14:26 54.6 °F 53.5 °F 29.97 in ENE 3.0 mph 7.0 mph 96 % 0.00 in
14:28 54.5 °F 53.4 °F 29.98 in ENE 2.8 mph 3.5 mph 96 % 0.01 in
14:33 54.5 °F 53.4 °F 29.98 in ENE 6.1 mph 9.2 mph 96 % 0.01 in
14:38 54.5 °F 53.4 °F 29.98 in ENE 3.4 mph 4.6 mph 96 % 0.01 in
14:43 54.4 °F 53.3 °F 29.98 in ENE 3.7 mph 6.9 mph 96 % 0.01 in
14:48 54.3 °F 53.2 °F 29.98 in NE 2.4 mph 3.5 mph 96 % 0.00 in
14:53 54.2 °F 53.1 °F 29.98 in ENE 2.3 mph 4.6 mph 96 % 0.00 in
14:58 54.2 °F 53.1 °F 29.98 in ENE 2.2 mph 3.5 mph 96 % 0.00 in
15:03 54.4 °F 53.3 °F 29.98 in ENE 1.8 mph 3.0 mph 96 % 0.00 in
15:08 54.4 °F 53.3 °F 29.98 in ENE 2.4 mph 3.5 mph 96 % 0.00 in
15:14 54.4 °F 53.3 °F 29.99 in ENE 2.4 mph 3.5 mph 96 % 0.00 in
15:19 54.5 °F 53.4 °F 29.98 in ENE 2.1 mph 3.5 mph 96 % 0.00 in
15:24 54.6 °F 53.5 °F 29.98 in East 2.5 mph 4.6 mph 96 % 0.00 in
15:29 54.7 °F 53.6 °F 29.98 in ENE 2.6 mph 4.0 mph 96 % 0.00 in
15:34 54.8 °F 53.7 °F 29.97 in ENE 2.8 mph 3.5 mph 96 % 0.00 in
15:39 55.2 °F 54.4 °F 29.99 in East 1.3 mph 3.5 mph 97 % 0.00 in
15:44 55.3 °F 54.5 °F 29.99 in East 1.7 mph 3.5 mph 97 % 0.00 in
15:49 55.1 °F 54.0 °F 29.99 in ENE 2.0 mph 3.5 mph 96 % 0.00 in
15:54 55.1 °F 54.0 °F 29.99 in ENE 1.6 mph 2.3 mph 96 % 0.00 in
15:59 55.2 °F 54.1 °F 29.99 in ENE 1.2 mph 2.3 mph 96 % 0.00 in
16:04 55.2 °F 54.1 °F 30.00 in ENE 0.7 mph 2.3 mph 96 % 0.00 in
16:09 55.2 °F 54.1 °F 29.99 in ENE 1.1 mph 2.3 mph 96 % 0.00 in
16:14 55.1 °F 54.0 °F 29.99 in ENE 1.2 mph 2.3 mph 96 % 0.00 in
16:19 55.1 °F 54.0 °F 29.99 in ENE 1.4 mph 3.5 mph 96 % 0.00 in
16:24 55.1 °F 54.0 °F 29.99 in ENE 0.7 mph 2.3 mph 96 % 0.00 in
16:29 55.1 °F 54.0 °F 29.99 in ENE 1.0 mph 2.3 mph 96 % 0.00 in
16:34 55.1 °F 54.0 °F 30.00 in ENE 0.8 mph 2.3 mph 96 % 0.00 in
16:39 55.2 °F 54.1 °F 30.00 in ENE 0.4 mph 2.3 mph 96 % 0.00 in
16:44 55.2 °F 54.1 °F 30.00 in ENE 0.5 mph 1.2 mph 96 % 0.00 in
16:49 55.2 °F 54.1 °F 30.00 in ENE 1.4 mph 2.3 mph 96 % 0.00 in
16:54 55.3 °F 54.2 °F 30.00 in ENE 0.6 mph 2.3 mph 96 % 0.00 in
17:00 55.5 °F 54.4 °F 30.00 in ENE 0.2 mph 2.3 mph 96 % 0.00 in
17:05 55.5 °F 54.4 °F 30.00 in ENE 0.1 mph 1.2 mph 96 % 0.00 in
17:10 55.5 °F 54.4 °F 30.00 in ENE 0.2 mph 1.2 mph 96 % 0.00 in
17:15 55.5 °F 54.4 °F 30.01 in ENE 0.3 mph 1.2 mph 96 % 0.00 in
17:20 55.5 °F 54.4 °F 30.01 in ENE 0.7 mph 2.3 mph 96 % 0.00 in
17:25 55.5 °F 54.4 °F 30.02 in ENE 0.1 mph 1.2 mph 96 % 0.00 in
17:30 55.6 °F 54.5 °F 30.02 in ENE 0.1 mph 1.2 mph 96 % 0.00 in
17:31 55.6 °F 54.5 °F 30.02 in Calm   1.2 mph 96 % 0.00 in
17:36 55.5 °F 54.4 °F 30.02 in Calm   1.2 mph 96 % 0.00 in
17:41 55.5 °F 54.4 °F 30.02 in ENE 0.1 mph 1.2 mph 96 % 0.00 in
17:46 55.5 °F 54.4 °F 30.02 in ENE 0.2 mph 1.2 mph 96 % 0.00 in
17:51 55.4 °F 54.3 °F 30.01 in ENE 0.2 mph 1.2 mph 96 % 0.00 in
17:56 55.4 °F 54.0 °F 30.01 in ENE 1.0 mph 2.3 mph 95 % 0.00 in
18:01 55.5 °F 54.4 °F 30.01 in ENE 0.9 mph 2.3 mph 96 % 0.00 in
18:06 55.6 °F 54.2 °F 30.01 in ENE 0.1 mph 1.0 mph 95 % 0.00 in
18:11 55.7 °F 54.3 °F 30.01 in ENE 0.1 mph 1.2 mph 95 % 0.00 in
18:16 55.7 °F 54.3 °F 30.02 in ENE 0.1 mph 1.2 mph 95 % 0.00 in
18:21 55.7 °F 54.3 °F 30.02 in ENE 0.1 mph 1.2 mph 95 % 0.00 in
18:26 55.8 °F 54.4 °F 30.02 in ENE 0.3 mph 1.2 mph 95 % 0.00 in
18:31 55.8 °F 54.4 °F 30.03 in ENE 0.1 mph 1.2 mph 95 % 0.00 in
18:36 55.8 °F 54.4 °F 30.03 in Calm     95 % 0.00 in
18:41 55.8 °F 54.4 °F 30.03 in Calm     95 % 0.00 in
18:46 55.8 °F 54.4 °F 30.03 in ENE 0.1 mph 1.2 mph 95 % 0.00 in
18:51 55.7 °F 54.3 °F 30.03 in Calm     95 % 0.00 in
18:56 55.7 °F 54.3 °F 30.03 in ENE 0.1 mph 1.2 mph 95 % 0.00 in
19:01 55.7 °F 54.3 °F 30.03 in ENE 0.1 mph 1.2 mph 95 % 0.00 in
19:06 55.7 °F 54.3 °F 30.04 in Calm     95 % 0.00 in
19:11 55.7 °F 54.3 °F 30.04 in Calm     95 % 0.00 in
19:16 55.7 °F 54.3 °F 30.04 in Calm   1.2 mph 95 % 0.00 in
19:21 55.7 °F 54.3 °F 30.04 in Calm   1.0 mph 95 % 0.00 in
19:26 55.7 °F 54.3 °F 30.04 in Calm   3.5 mph 95 % 0.00 in
19:31 55.7 °F 54.3 °F 30.04 in Calm   1.2 mph 95 % 0.00 in
19:36 55.8 °F 54.4 °F 30.05 in Calm     95 % 0.00 in
19:41 55.8 °F 54.4 °F 30.05 in Calm     95 % 0.00 in
19:46 55.7 °F 54.3 °F 30.05 in Calm     95 % 0.00 in
19:51 55.7 °F 54.3 °F 30.05 in Calm     95 % 0.00 in
19:56 55.8 °F 54.4 °F 30.05 in Calm     95 % 0.00 in
20:01 55.7 °F 54.3 °F 30.04 in Calm     95 % 0.00 in
20:07 55.7 °F 54.3 °F 30.04 in Calm     95 % 0.00 in
20:12 55.7 °F 54.3 °F 30.05 in Calm     95 % 0.00 in
20:17 55.6 °F 54.2 °F 30.05 in Calm     95 % 0.00 in
20:22 55.6 °F 54.2 °F 30.04 in Calm   1.2 mph 95 % 0.00 in
20:27 55.5 °F 53.8 °F 30.04 in Calm     94 % 0.00 in
20:32 55.5 °F 53.8 °F 30.04 in Calm     94 % 0.00 in
20:37 55.5 °F 53.8 °F 30.04 in Calm     94 % 0.00 in
20:42 55.4 °F 53.7 °F 30.05 in Calm     94 % 0.00 in
20:47 55.4 °F 53.7 °F 30.05 in Calm   2.3 mph 94 % 0.00 in
20:52 55.4 °F 53.7 °F 30.05 in Calm     94 % 0.00 in
20:57 55.4 °F 53.7 °F 30.05 in Calm     94 % 0.00 in
21:02 55.3 °F 53.6 °F 30.05 in Calm     94 % 0.00 in
21:07 55.3 °F 53.6 °F 30.05 in Calm     94 % 0.00 in
21:12 55.3 °F 53.9 °F 30.05 in Calm     95 % 0.00 in
21:17 55.3 °F 53.9 °F 30.05 in Calm     95 % 0.00 in
21:22 55.3 °F 53.9 °F 30.05 in Calm     95 % 0.00 in
21:27 55.2 °F 53.8 °F 30.05 in Calm     95 % 0.00 in
21:32 55.2 °F 53.8 °F 30.06 in Calm     95 % 0.00 in
21:37 55.2 °F 53.8 °F 30.06 in ESE 1.0 mph 3.5 mph 95 % 0.00 in
21:42 55.2 °F 53.8 °F 30.06 in Calm     95 % 0.00 in
21:47 55.1 °F 53.7 °F 30.06 in Calm   1.2 mph 95 % 0.00 in
21:52 55.1 °F 53.7 °F 30.06 in SE 0.1 mph   95 % 0.00 in
21:57 55.1 °F 53.7 °F 30.06 in SE 0.5 mph 1.2 mph 95 % 0.00 in
22:02 55.1 °F 53.7 °F 30.06 in Calm   1.2 mph 95 % 0.00 in
22:07 55.1 °F 53.7 °F 30.06 in SE 0.1 mph 1.2 mph 95 % 0.00 in
22:12 55.0 °F 53.6 °F 30.06 in SE 0.2 mph 1.2 mph 95 % 0.00 in
22:17 55.0 °F 53.6 °F 30.06 in Calm   1.0 mph 95 % 0.00 in
22:22 55.0 °F 53.6 °F 30.06 in Calm   1.2 mph 95 % 0.00 in
22:23 55.0 °F 53.6 °F 30.06 in Calm     95 % 0.00 in
22:28 55.0 °F 53.6 °F 30.06 in SE 0.3 mph 2.3 mph 95 % 0.00 in
22:33 54.9 °F 53.5 °F 30.05 in SE 0.5 mph 2.3 mph 95 % 0.00 in
22:38 54.9 °F 53.5 °F 30.06 in Calm   2.3 mph 95 % 0.00 in
22:43 54.8 °F 53.4 °F 30.06 in SE 0.8 mph 2.3 mph 95 % 0.00 in
22:48 54.8 °F 53.4 °F 30.06 in SE 0.2 mph 1.2 mph 95 % 0.00 in
22:53 54.8 °F 53.4 °F 30.06 in SE 0.3 mph 2.3 mph 95 % 0.00 in
22:58 54.8 °F 53.4 °F 30.06 in Calm     95 % 0.00 in
23:03 54.8 °F 53.4 °F 30.06 in Calm     95 % 0.00 in
23:08 54.7 °F 53.3 °F 30.07 in Calm     95 % 0.00 in
23:18 54.7 °F 53.3 °F 30.07 in Calm     95 % 0.00 in
23:24 54.7 °F 53.3 °F 30.06 in Calm     95 % 0.00 in
23:29 54.7 °F 53.3 °F 30.06 in Calm   1.2 mph 95 % 0.00 in
23:34 54.7 °F 53.3 °F 30.06 in Calm     95 % 0.00 in
23:39 54.7 °F 53.3 °F 30.06 in Calm     95 % 0.00 in
23:44 54.7 °F 53.3 °F 30.06 in Calm     95 % 0.00 in
23:49 54.7 °F 53.3 °F 30.06 in Calm   1.2 mph 95 % 0.00 in
23:54 54.8 °F 53.4 °F 30.06 in Calm     95 % 0.00 in
23:59 54.8 °F 53.4 °F 30.06 in Calm     95 % 0.00 in
Crab Meadow Weather
Compliments of Weather Underground - 3 mb

Script developed by  Jim McMurry - jmcmurry@mwt.net Adapted for the template by  Wim van der Kuil - Leuven-Template.eu

Astronomy: Our moon is moving away from the earth at about 3cm per year.